Weather reports worldwide

Advertisment
Hereford/Credenhill, United Kingdom (3522): temperature & dewpoint: 18.11.2020 14:00:00 - 24.11.2020 14:00:00 (GMT)Hereford/Credenhill, United Kingdom (3522): temperature -20cm & temperature -100cm: 18.11.2020 14:00:00 - 24.11.2020 14:00:00 (GMT)Hereford/Credenhill, United Kingdom (3522): wind speed & gusts: 18.11.2020 14:00:00 - 24.11.2020 14:00:00 (GMT)Hereford/Credenhill, United Kingdom (3522): wind direction: 18.11.2020 14:00:00 - 24.11.2020 14:00:00 (GMT)Hereford/Credenhill, United Kingdom (3522): reduced air pressure: 18.11.2020 14:00:00 - 24.11.2020 14:00:00 (GMT)Hereford/Credenhill, United Kingdom (3522): visibility: 18.11.2020 14:00:00 - 24.11.2020 14:00:00 (GMT)Hereford/Credenhill, United Kingdom (3522): precipitation: 18.11.2020 14:00:00 - 24.11.2020 14:00:00 (GMT)
Date & Time tt [°C] td [°C] tt -20cm [°C] tt -100cm [°C] ff [km/h] ff [kn] fx [km/h] fx [kn] dd ppp [hPa] vv [km] rr [mm]
24.11.2020 14:00:00 11,6 8,5 - - 11 6 - - SSE 1011,6 16 0,0
24.11.2020 13:00:00 11,6 8,3 - - 11 6 - - S 1012,7 17 0,0
24.11.2020 12:00:00 11,4 7,8 - - 9 5 - - S 1013,5 18 0,0
24.11.2020 11:00:00 12,2 8,5 - - 8 4 - - S 1014,9 19 0,0
24.11.2020 10:00:00 10,8 8,5 - - 8 4 - - S 1015,7 18 0,0
24.11.2020 09:00:00 10,5 8,7 9,2 10,5 5 3 - - SSW 1016,1 17 0,0
24.11.2020 08:00:00 10,2 8,4 - - 5 3 - - SSW 1016,5 19 0,0
24.11.2020 07:00:00 10,0 8,4 - - 4 2 - - SSW 1016,4 22 0,0
24.11.2020 06:00:00 10,0 8,5 - - 5 3 - - SSW 1017,0 21 0,0
24.11.2020 05:00:00 10,0 8,6 - - 5 3 - - S 1017,5 24 0,0
24.11.2020 04:00:00 10,2 9,0 - - 5 3 - - S 1018,3 19 0,0
24.11.2020 03:00:00 10,0 9,0 - - 5 3 - - S 1018,8 14 0,0
24.11.2020 02:00:00 9,8 8,8 - - 5 3 - - S 1019,2 18 0,0
24.11.2020 01:00:00 9,2 8,1 - - 4 2 - - SSW 1020,1 24 0,0
24.11.2020 00:00:00 9,5 8,4 - - 5 3 - - S 1020,5 21 0,0
23.11.2020 23:00:00 10,0 8,7 - - 5 3 - - SSW 1021,1 20 0,0
23.11.2020 22:00:00 9,6 8,0 - - 5 3 - - SSW 1021,4 26 0,0
23.11.2020 21:00:00 8,7 6,8 - - 4 2 - - SSW 1021,9 24 0,0
23.11.2020 20:00:00 9,3 7,4 - - 4 2 - - S 1022,3 20 0,0
23.11.2020 19:00:00 9,3 7,2 - - 8 4 - - S 1022,6 21 0,0
23.11.2020 18:00:00 9,8 7,8 - - 5 3 - - S 1023,1 21 0,0
23.11.2020 17:00:00 9,0 7,4 - - 4 2 - - S 1023,2 24 0,0
23.11.2020 16:00:00 9,0 7,2 - - 4 2 - - SSW 1023,7 20 0,0
23.11.2020 15:00:00 9,6 7,5 - - 5 3 - - S 1024,1 22 0,0
23.11.2020 14:00:00 9,6 7,8 - - 4 2 - - S 1024,4 24 0,0
23.11.2020 13:00:00 9,1 8,9 - - 8 4 - - S 1025,1 20 0,0
23.11.2020 12:00:00 5,8 5,7 - - 2 1 - - SW 1026,7 3,8 0,0
23.11.2020 11:00:00 4,6 4,6 - - 4 2 - - ESE 1027,2 5 0,2
23.11.2020 10:00:00 0,9 0,8 - - 4 2 - - W 1027,6 3,0 0,0
23.11.2020 09:00:00 -1,0 -1,2 9,5 10,4 4 2 - - ENE 1027,7 0,2 0,0
23.11.2020 08:00:00 -2,1 -2,3 - - 0 0 - - N 1028,0 4,2 0,0
23.11.2020 07:00:00 -1,8 -2,1 - - 2 1 - - ESE 1027,9 0,7 0,0
23.11.2020 06:00:00 -1,5 -1,8 - - 0 0 - - N 1027,7 0,1 0,0
23.11.2020 05:00:00 -0,9 -1,2 - - 2 1 - - N 1027,8 2,9 0,0
23.11.2020 04:00:00 -0,5 -0,7 - - 2 1 - - WNW 1027,8 5 0,0
23.11.2020 03:00:00 -0,6 -0,9 - - 0 0 - - N 1028,3 2,8 0,0
23.11.2020 02:00:00 -0,5 -0,7 - - 2 1 - - NW 1028,5 5 0,0
23.11.2020 01:00:00 -1,0 -1,4 - - 4 2 - - ESE 1028,6 2,4 0,0
23.11.2020 00:00:00 0,6 0,3 - - 2 1 - - WSW 1028,5 5 0,0
22.11.2020 23:00:00 0,7 0,4 - - 4 2 - - W 1028,4 7 0,0
22.11.2020 22:00:00 1,1 0,7 - - 5 3 - - WNW 1028,3 11 0,0
22.11.2020 21:00:00 1,1 0,6 - - 2 1 - - W 1028,2 9 0,0
22.11.2020 20:00:00 1,0 0,3 - - 2 1 - - SW 1028,2 11 0,0
22.11.2020 19:00:00 1,9 0,9 - - 0 0 - - N 1027,9 11 0,0
22.11.2020 18:00:00 3,1 2,0 - - 0 0 - - N 1027,7 14 0,0
22.11.2020 17:00:00 4,7 2,1 - - 2 1 - - WSW 1027,1 17 0,0
22.11.2020 16:00:00 8,0 3,0 - - 5 3 - - WSW 1026,8 23 0,0
22.11.2020 15:00:00 9,3 3,1 - - 9 5 - - WSW 1026,7 25 0,0
22.11.2020 14:00:00 10,0 3,8 - - 11 6 - - WSW 1026,8 22 0,0
22.11.2020 13:00:00 9,0 5,0 - - 4 2 - - W 1027,3 19 0,0
22.11.2020 12:00:00 8,6 5,7 - - 4 2 - - WSW 1027,7 16 0,0
22.11.2020 11:00:00 7,0 6,6 - - 4 2 - - W 1028,1 14 0,0
22.11.2020 10:00:00 6,7 6,5 - - 2 1 - - W 1027,8 18 0,0
22.11.2020 09:00:00 3,9 3,7 10,2 10,7 4 2 - - SW 1027,5 8 0,0
22.11.2020 08:00:00 2,9 2,7 - - 4 2 - - NNW 1027,1 9 0,0
22.11.2020 07:00:00 2,6 2,2 - - 4 2 - - SSW 1026,7 8 0,0
22.11.2020 06:00:00 2,6 2,0 - - 2 1 - - WNW 1026,4 0,4 0,0
22.11.2020 05:00:00 4,3 3,8 - - 5 3 - - WNW 1026,3 16 0,0
22.11.2020 04:00:00 5,4 4,8 - - 4 2 - - WNW 1025,9 17 0,0
22.11.2020 03:00:00 6,1 5,1 - - 2 1 - - W 1025,5 19 0,0
22.11.2020 02:00:00 8,0 7,1 - - 4 2 - - SSW 1025,4 26 0,0
22.11.2020 01:00:00 5,7 4,3 - - 2 1 - - NE 1025,3 25 0,0
22.11.2020 00:00:00 8,4 5,9 - - 4 2 - - SW 1024,8 28 0,0
21.11.2020 23:00:00 10,4 7,5 - - 13 7 - - W 1024,5 26 0,0
21.11.2020 22:00:00 11,5 9,7 - - 16 9 - - W 1024,0 24 0,0
21.11.2020 21:00:00 11,8 9,8 - - 22 12 - - W 1023,8 26 0,2
21.11.2020 20:00:00 12,2 9,7 - - 13 7 - - WSW 1023,8 30 0,0
21.11.2020 19:00:00 12,6 9,8 - - 13 7 - - WSW 1023,7 29 0,0
21.11.2020 18:00:00 11,7 9,8 - - 9 5 - - WSW 1023,5 27 0,0
21.11.2020 17:00:00 11,8 9,6 - - 8 4 - - SW 1023,4 30 0,0
21.11.2020 16:00:00 12,0 9,2 - - 9 5 - - SW 1023,5 26 0,0
21.11.2020 15:00:00 12,7 9,0 - - 9 5 - - SW 1023,3 29 0,0
21.11.2020 14:00:00 12,8 8,4 - - 5 3 - - SW 1023,7 29 0,0
21.11.2020 13:00:00 12,5 8,7 - - 4 2 - - SSW 1024,1 24 0,0
21.11.2020 12:00:00 12,5 7,9 - - 15 8 - - WSW 1024,7 27 0,0
21.11.2020 11:00:00 12,1 7,8 - - 15 8 - - WSW 1025,3 27 0,0
21.11.2020 10:00:00 11,8 7,6 - - 11 6 - - WSW 1025,5 26 0,0
21.11.2020 09:00:00 11,1 7,4 10,2 10,7 4 2 - - S 1024,9 27 0,0
21.11.2020 08:00:00 11,3 6,9 - - 8 4 - - WSW 1024,9 27 0,0
21.11.2020 07:00:00 11,2 7,0 - - 9 5 - - WSW 1025,0 26 0,0
21.11.2020 06:00:00 11,3 6,9 - - 15 8 - - WSW 1025,1 26 0,0
21.11.2020 05:00:00 11,4 6,9 - - 18 10 - - WSW 1024,9 26 0,0
21.11.2020 04:00:00 10,8 7,5 - - 13 7 - - WSW 1025,3 25 0,0
21.11.2020 03:00:00 11,1 7,8 - - 15 8 - - WSW 1025,6 23 0,0
21.11.2020 02:00:00 11,3 7,7 - - 11 6 - - WSW 1025,9 28 0,0
21.11.2020 01:00:00 11,1 7,6 - - 18 10 - - WSW 1025,9 30 0,0
21.11.2020 00:00:00 11,4 8,3 - - 15 8 - - WSW 1026,4 24 0,0
20.11.2020 23:00:00 10,9 8,2 - - 4 2 - - SW 1026,6 28 0,0
20.11.2020 22:00:00 10,8 8,4 - - 4 2 - - WSW 1027,0 29 0,0
20.11.2020 21:00:00 11,1 8,7 - - 11 6 - - WSW 1027,4 27 0,0
20.11.2020 20:00:00 11,2 8,9 - - 13 7 - - W 1028,1 16 0,0
20.11.2020 19:00:00 11,5 9,3 - - 13 7 - - WSW 1028,1 22 0,0
20.11.2020 18:00:00 11,8 9,8 - - 13 7 - - W 1028,5 17 0,0
20.11.2020 17:00:00 11,6 10,3 - - 9 5 - - WSW 1028,1 21 0,0
20.11.2020 16:00:00 11,1 9,7 - - 2 1 - - SSE 1028,1 24 0,0
20.11.2020 15:00:00 11,0 9,7 - - 4 2 - - SSW 1028,3 24 0,0
20.11.2020 14:00:00 10,6 9,6 - - 4 2 - - S 1028,8 24 0,0
20.11.2020 13:00:00 10,1 9,4 - - 5 3 - - S 1029,5 20 0,0
20.11.2020 12:00:00 9,5 9,0 - - 4 2 - - S 1030,9 17 0,2
20.11.2020 11:00:00 8,9 8,3 - - 4 2 - - SW 1031,5 6 1,0
20.11.2020 10:00:00 8,3 7,7 - - 4 2 - - SSW 1031,7 10 0,6
20.11.2020 09:00:00 7,4 6,5 10,2 10,7 4 2 - - WSW 1032,1 9 0,2
20.11.2020 08:00:00 6,8 5,7 - - 2 1 - - S 1032,4 12 0,0
20.11.2020 07:00:00 6,6 5,3 - - 2 1 - - SSW 1032,8 16 0,0
20.11.2020 06:00:00 6,3 5,8 - - 4 2 - - S 1032,9 19 0,0
20.11.2020 05:00:00 3,0 2,8 - - 4 2 - - ENE 1033,8 19 0,0
20.11.2020 04:00:00 2,2 1,9 - - 2 1 - - NW 1034,3 16 0,0
20.11.2020 03:00:00 1,4 1,0 - - 4 2 - - W 1034,8 14 0,0
20.11.2020 02:00:00 0,7 0,3 - - 2 1 - - NW 1035,4 12 0,0
20.11.2020 01:00:00 0,3 -0,3 - - 2 1 - - W 1036,1 12 0,0
20.11.2020 00:00:00 1,1 0,2 - - 2 1 - - WSW 1036,5 10 0,0
19.11.2020 23:00:00 2,8 1,8 - - 4 2 - - SSW 1036,4 11 0,0
19.11.2020 22:00:00 3,4 2,1 - - 5 3 - - WNW 1036,7 17 0,0
19.11.2020 21:00:00 3,1 2,2 - - 8 4 - - WNW 1036,5 18 0,0
19.11.2020 20:00:00 2,4 1,3 - - 5 3 - - WNW 1035,6 17 0,0
19.11.2020 19:00:00 3,1 1,1 - - 5 3 - - WNW 1034,7 16 0,0
19.11.2020 18:00:00 4,8 2,0 - - 2 1 - - WSW 1034,3 25 0,0
19.11.2020 17:00:00 5,4 2,1 - - 8 4 - - W 1034,3 20 0,0
19.11.2020 16:00:00 7,6 2,3 - - 13 7 - - W 1033,8 22 0,0
19.11.2020 15:00:00 8,6 2,7 - - 21 11 - - W 1032,6 26 0,0
19.11.2020 14:00:00 8,9 3,2 - - 4 2 - - NNW 1030,9 24 0,0
19.11.2020 13:00:00 9,3 2,8 - - 21 11 - - WNW 1031,8 23 0,0
19.11.2020 12:00:00 8,5 4,3 - - 5 3 - - NW 1031,0 26 0,0
19.11.2020 11:00:00 7,3 3,3 - - 13 7 - - N 1029,5 26 0,0
19.11.2020 10:00:00 8,2 3,8 - - 15 8 - - WNW 1027,3 27 0,0
19.11.2020 09:00:00 8,8 4,4 10,9 10,9 13 7 - - WNW 1025,7 26 0,0
19.11.2020 08:00:00 9,0 4,2 - - 15 8 - - W 1023,5 22 0,0
19.11.2020 07:00:00 9,5 4,8 - - 21 11 46 25 WNW 1021,5 23 0,0
19.11.2020 06:00:00 8,8 5,3 - - 22 12 63 34 W 1019,2 26 0,0
19.11.2020 05:00:00 8,5 4,8 - - 37 20 65 35 W 1018,2 25 0,0
19.11.2020 04:00:00 8,6 4,4 - - 34 18 61 33 W 1018,0 22 0,0
19.11.2020 03:00:00 8,4 4,4 - - 31 17 68 37 W 1016,3 24 0,0
19.11.2020 02:00:00 8,6 5,1 - - 31 17 54 29 W 1015,4 19 0,0
19.11.2020 01:00:00 9,1 4,8 - - 24 13 54 29 WSW 1015,2 23 0,0
19.11.2020 00:00:00 9,3 4,5 - - 24 13 48 26 WSW 1015,3 16 0,0
18.11.2020 23:00:00 9,8 4,2 - - 21 11 46 25 WSW 1015,5 17 0,0
18.11.2020 22:00:00 9,2 3,7 - - 22 12 52 28 WSW 1015,5 18 0,0
18.11.2020 21:00:00 9,1 3,6 - - 22 12 46 25 WSW 1015,3 18 0,0
18.11.2020 20:00:00 8,8 3,3 - - 21 11 46 25 WSW 1014,8 17 0,0
18.11.2020 19:00:00 8,7 3,2 - - 21 11 - - WSW 1014,5 18 0,0
18.11.2020 18:00:00 8,4 3,3 - - 18 10 - - WSW 1014,3 19 0,0
18.11.2020 17:00:00 8,9 3,3 - - 21 11 46 25 WSW 1013,9 20 0,0
18.11.2020 16:00:00 10,6 5,8 - - 22 12 52 28 WSW 1012,2 23 0,0
18.11.2020 15:00:00 11,9 8,7 - - 24 13 46 25 W 1011,1 28 0,0
18.11.2020 14:00:00 12,9 10,6 - - 21 11 - - WSW 1010,1 27 0,2

tt = temperature
td = dewpoint
tt -20cm = temperature -20cm
tt -100cm = temperature -100cm
ff = wind speed
fx = gusts
dd = wind direction
ppp = reduced air pressure
vv = visibility
rr = precipitation

Next stations